ASA888X MMTJ-PABR

Flight info

Callsign ASA888X
Flight time 5h 44m
Altitude 34000
Route TIJ4B TIJ DCT PDZ DCT FMG J5 LKV J67 BTG DCT UQQ DCT XT/N0443F340 DCT IRGIP Q969 YXY DCT FANES/N0449F360 DCT DERIK DCT BRW
Aircraft MD82/M-SDFGIRWY/C

Departure

Time 2026-04-21 14:30
Airport General Abelardo L. Rodriguez International Airport (MMTJ)

Arrival

Time 2026-04-21 20:15
Airport Wiley Post Will Rogers Memorial Airport (PABR)
Time Latitude Longitude Altitude Speed Heading
2026-04-21 14:03 32.54478 -116.97396 496 ft 0 kts 275°
2026-04-21 14:20 32.54477 -116.97382 496 ft 2 kts 275°
2026-04-21 14:21 32.54476 -116.97364 496 ft 2 kts 275°
2026-04-21 14:21 32.54475 -116.97352 496 ft 2 kts 271°
2026-04-21 14:21 32.54480 -116.97336 496 ft 2 kts 227°
2026-04-21 14:21 32.54491 -116.97326 496 ft 1 kts 194°
2026-04-21 14:22 32.54496 -116.97325 496 ft 0 kts 187°
2026-04-21 14:25 32.54488 -116.97326 496 ft 5 kts 188°
2026-04-21 14:26 32.54424 -116.97344 496 ft 13 kts 210°
2026-04-21 14:26 32.54342 -116.97402 496 ft 8 kts 161°
2026-04-21 14:26 32.54311 -116.97300 496 ft 20 kts 99°
2026-04-21 14:26 32.54279 -116.97067 496 ft 34 kts 99°
2026-04-21 14:27 32.54242 -116.96786 496 ft 35 kts 98°
2026-04-21 14:27 32.54201 -116.96483 496 ft 39 kts 97°
2026-04-21 14:27 32.54160 -116.96165 496 ft 39 kts 99°
2026-04-21 14:27 32.54119 -116.95842 496 ft 40 kts 98°
2026-04-21 14:28 32.54079 -116.95543 496 ft 30 kts 99°
2026-04-21 14:28 32.53957 -116.95440 496 ft 26 kts 189°
2026-04-21 14:28 32.53906 -116.95493 496 ft 0 kts 278°
2026-04-21 14:30 32.53908 -116.95507 496 ft 15 kts 279°
2026-04-21 14:30 32.53966 -116.95954 496 ft 94 kts 278°
2026-04-21 14:30 32.54106 -116.97014 497 ft 166 kts 279°
2026-04-21 14:30 32.54286 -116.98432 1259 ft 180 kts 278°
2026-04-21 14:31 32.54478 -116.99948 2070 ft 194 kts 283°
2026-04-21 14:31 32.54986 -117.01345 3133 ft 190 kts 307°
2026-04-21 14:31 32.55952 -117.02387 4030 ft 196 kts 329°
2026-04-21 14:31 32.57241 -117.02893 4991 ft 200 kts 352°
2026-04-21 14:32 32.58588 -117.02969 5993 ft 200 kts 357°
2026-04-21 14:32 32.60003 -117.03027 6726 ft 214 kts 355°
2026-04-21 14:32 32.61527 -117.03158 7464 ft 228 kts 352°
2026-04-21 14:32 32.63117 -117.03408 8292 ft 238 kts 348°
2026-04-21 14:33 32.64715 -117.03734 9257 ft 242 kts 348°
2026-04-21 14:33 32.66480 -117.03989 9809 ft 270 kts 352°
2026-04-21 14:33 32.68381 -117.04215 10732 ft 283 kts 352°
2026-04-21 14:33 32.70357 -117.04436 11627 ft 296 kts 352°
2026-04-21 14:34 32.72396 -117.04634 12462 ft 300 kts 353°
2026-04-21 14:34 32.74572 -117.04566 12900 ft 333 kts 12°
2026-04-21 14:34 32.76924 -117.03918 13385 ft 362 kts
2026-04-21 14:34 32.79446 -117.04154 14071 ft 375 kts 339°
2026-04-21 14:35 32.81938 -117.05148 14872 ft 387 kts 341°
2026-04-21 14:35 32.84551 -117.06087 15647 ft 398 kts 340°
2026-04-21 14:35 32.87225 -117.07029 16459 ft 407 kts 340°
2026-04-21 14:35 32.89936 -117.08001 17426 ft 414 kts 340°
2026-04-21 14:36 32.92693 -117.08981 18384 ft 420 kts 340°
2026-04-21 14:36 32.95491 -117.09978 19344 ft 424 kts 340°
2026-04-21 14:36 32.98325 -117.10990 20305 ft 429 kts 340°
2026-04-21 14:36 33.01169 -117.12005 21261 ft 432 kts 340°
2026-04-21 14:37 33.04065 -117.13039 22225 ft 437 kts 340°
2026-04-21 14:37 33.06968 -117.14075 23181 ft 441 kts 339°
2026-04-21 14:37 33.09900 -117.15125 24138 ft 446 kts 339°
2026-04-21 14:37 33.12854 -117.16182 25082 ft 451 kts 339°
2026-04-21 14:38 33.15858 -117.17258 26032 ft 456 kts 339°
2026-04-21 14:38 33.18887 -117.18344 26979 ft 460 kts 339°
2026-04-21 14:38 33.21942 -117.19441 27925 ft 463 kts 339°
2026-04-21 14:38 33.25021 -117.20546 28873 ft 465 kts 339°
2026-04-21 14:39 33.27765 -117.21532 29712 ft 466 kts 339°
2026-04-21 14:39 33.31048 -117.22712 30713 ft 466 kts 339°
2026-04-21 14:39 33.34127 -117.23819 31650 ft 465 kts 339°
2026-04-21 14:39 33.37205 -117.24926 32586 ft 462 kts 338°
2026-04-21 14:40 33.40258 -117.26025 33517 ft 459 kts 338°
2026-04-21 14:40 33.43304 -117.27126 34047 ft 466 kts 338°
2026-04-21 14:40 33.46467 -117.28274 34108 ft 481 kts 338°
2026-04-21 14:40 33.49703 -117.29444 34116 ft 494 kts 339°
2026-04-21 14:41 33.53018 -117.30641 34111 ft 502 kts 339°
2026-04-21 14:41 33.59722 -117.33063 34094 ft 506 kts 339°
2026-04-21 14:42 33.66387 -117.35478 34089 ft 505 kts 339°
2026-04-21 14:42 33.73143 -117.37932 34090 ft 505 kts 339°
2026-04-21 14:43 33.79845 -117.40370 34090 ft 506 kts 339°
2026-04-21 14:43 33.86561 -117.42815 34090 ft 506 kts 338°
2026-04-21 14:44 33.93301 -117.45275 34091 ft 507 kts 339°
2026-04-21 14:44 34.00030 -117.47734 34092 ft 508 kts 339°
2026-04-21 14:45 34.06794 -117.50210 34093 ft 511 kts 339°
2026-04-21 14:45 34.13561 -117.52691 34083 ft 511 kts 339°
2026-04-21 14:46 34.20372 -117.55193 34079 ft 511 kts 339°
2026-04-21 14:46 34.27141 -117.57683 34076 ft 511 kts 339°
2026-04-21 14:47 34.33920 -117.60182 34077 ft 512 kts 339°
2026-04-21 14:47 34.40726 -117.62694 34077 ft 512 kts 339°
2026-04-21 14:48 34.47507 -117.65202 34078 ft 511 kts 338°
2026-04-21 14:48 34.54284 -117.67712 34085 ft 512 kts 338°
2026-04-21 14:49 34.61068 -117.70230 34085 ft 512 kts 338°
2026-04-21 14:49 34.67889 -117.72765 34086 ft 513 kts 338°
2026-04-21 14:50 34.73540 -117.74869 34085 ft 513 kts 338°
2026-04-21 14:50 34.81489 -117.77833 34061 ft 514 kts 338°
2026-04-21 14:51 34.88339 -117.80393 34038 ft 515 kts 338°
2026-04-21 14:51 34.95170 -117.82949 34033 ft 516 kts 338°
2026-04-21 14:52 35.02013 -117.85515 34034 ft 518 kts 338°
2026-04-21 14:52 35.08870 -117.88089 34037 ft 519 kts 338°
2026-04-21 14:53 35.15764 -117.90685 34032 ft 519 kts 338°
2026-04-21 14:53 35.22641 -117.93276 34035 ft 521 kts 338°
2026-04-21 14:54 35.29543 -117.95882 34038 ft 522 kts 338°
2026-04-21 14:54 35.36478 -117.98506 34042 ft 523 kts 338°
2026-04-21 14:55 35.43407 -118.01127 34025 ft 525 kts 338°
2026-04-21 14:55 35.50374 -118.03777 34003 ft 527 kts 338°
2026-04-21 14:56 35.57348 -118.06428 33991 ft 527 kts 338°
2026-04-21 14:56 35.64352 -118.09097 33992 ft 528 kts 338°
2026-04-21 14:57 35.71328 -118.11760 33992 ft 527 kts 338°
2026-04-21 14:57 35.78303 -118.14428 33993 ft 527 kts 338°
2026-04-21 14:58 35.85310 -118.17112 33994 ft 528 kts 338°
2026-04-21 14:58 35.92316 -118.19801 33983 ft 528 kts 338°
2026-04-21 14:59 35.99302 -118.22488 33972 ft 528 kts 338°
2026-04-21 14:59 36.06290 -118.25179 33969 ft 529 kts 338°
2026-04-21 15:00 36.13306 -118.27888 33958 ft 530 kts 338°
2026-04-21 15:00 36.20311 -118.30596 33958 ft 529 kts 338°
2026-04-21 15:01 36.27313 -118.33308 33959 ft 530 kts 338°
2026-04-21 15:01 36.34346 -118.36040 33959 ft 531 kts 338°
2026-04-21 15:02 36.41370 -118.38770 33960 ft 531 kts 338°
2026-04-21 15:02 36.48226 -118.41443 33961 ft 532 kts 338°
2026-04-21 15:03 36.55401 -118.44244 33951 ft 533 kts 338°
2026-04-21 15:03 36.62488 -118.47014 33941 ft 534 kts 338°
2026-04-21 15:04 36.69559 -118.49788 33936 ft 535 kts 338°
2026-04-21 15:04 36.76626 -118.52561 33936 ft 535 kts 338°
2026-04-21 15:05 36.83730 -118.55356 33937 ft 536 kts 338°
2026-04-21 15:05 36.94366 -118.59552 33939 ft 538 kts 338°
2026-04-21 15:06 37.01459 -118.62355 33939 ft 538 kts 338°
2026-04-21 15:06 37.08593 -118.65181 33942 ft 539 kts 337°
2026-04-21 15:07 37.15688 -118.67996 33931 ft 538 kts 337°
2026-04-21 15:07 37.22808 -118.70829 33923 ft 539 kts 338°
2026-04-21 15:08 37.29924 -118.73663 33918 ft 540 kts 337°
2026-04-21 15:08 37.37081 -118.76521 33917 ft 541 kts 337°
2026-04-21 15:09 37.44236 -118.79384 33918 ft 542 kts 338°
2026-04-21 15:09 37.51395 -118.82252 33923 ft 542 kts 337°
2026-04-21 15:10 37.54950 -118.83678 34250 ft 538 kts 337°
2026-04-21 15:10 37.58508 -118.85108 34620 ft 534 kts 337°
2026-04-21 15:10 37.62042 -118.86532 34995 ft 533 kts 337°
2026-04-21 15:10 37.65545 -118.87943 35369 ft 533 kts 337°
2026-04-21 15:11 37.69069 -118.89360 35749 ft 534 kts 337°
2026-04-21 15:11 37.72594 -118.90786 35933 ft 538 kts 337°
2026-04-21 15:11 37.79736 -118.93670 35960 ft 544 kts 337°
2026-04-21 15:12 37.86936 -118.96586 35956 ft 544 kts 338°
2026-04-21 15:12 37.94108 -118.99497 35951 ft 544 kts 338°
2026-04-21 15:13 38.01285 -119.02413 35955 ft 546 kts 338°
2026-04-21 15:13 38.08545 -119.05372 35965 ft 550 kts 338°
2026-04-21 15:14 38.15793 -119.08330 35947 ft 550 kts 338°
2026-04-21 15:14 38.23049 -119.11300 35948 ft 549 kts 338°
2026-04-21 15:15 38.30258 -119.14254 35937 ft 544 kts 338°
2026-04-21 15:15 38.37455 -119.17211 35924 ft 544 kts 337°
2026-04-21 15:16 38.44620 -119.20162 35916 ft 544 kts 337°
2026-04-21 15:16 38.51782 -119.23116 35917 ft 544 kts 337°
2026-04-21 15:17 38.58987 -119.26096 35918 ft 545 kts 338°
2026-04-21 15:17 38.66174 -119.29073 35919 ft 545 kts 338°
2026-04-21 15:18 38.73354 -119.32053 35921 ft 546 kts 337°
2026-04-21 15:18 38.80549 -119.35050 35921 ft 547 kts 338°
2026-04-21 15:19 38.87776 -119.38061 35923 ft 547 kts 338°
2026-04-21 15:19 38.94989 -119.41075 35926 ft 548 kts 338°
2026-04-21 15:20 39.02212 -119.44099 35932 ft 549 kts 338°
2026-04-21 15:20 39.09452 -119.47139 35936 ft 550 kts 338°
2026-04-21 15:21 39.16683 -119.50177 35919 ft 550 kts 338°
2026-04-21 15:21 39.23937 -119.53236 35920 ft 552 kts 338°
2026-04-21 15:22 39.31209 -119.56306 35920 ft 553 kts 338°
2026-04-21 15:22 39.38524 -119.59403 35922 ft 554 kts 338°
2026-04-21 15:23 39.45772 -119.62480 35923 ft 555 kts 338°
2026-04-21 15:23 39.52470 -119.65278 35917 ft 559 kts 342°
2026-04-21 15:24 39.60265 -119.67560 35934 ft 562 kts 344°
2026-04-21 15:24 39.67607 -119.69590 35931 ft 563 kts 344°
2026-04-21 15:25 39.75052 -119.71644 35933 ft 563 kts 344°
2026-04-21 15:25 39.82192 -119.73619 35934 ft 563 kts 344°
2026-04-21 15:26 39.90068 -119.75804 35936 ft 564 kts 344°
2026-04-21 15:26 39.97717 -119.77942 35938 ft 567 kts 346°
2026-04-21 15:27 40.05413 -119.80071 35939 ft 568 kts 345°
2026-04-21 15:27 40.13134 -119.82225 35919 ft 567 kts 345°
2026-04-21 15:28 40.20814 -119.84374 35916 ft 567 kts 345°
2026-04-21 15:28 40.28498 -119.86528 35904 ft 567 kts 345°
2026-04-21 15:29 40.36176 -119.88686 35896 ft 567 kts 345°
2026-04-21 15:29 40.43890 -119.90859 35898 ft 567 kts 345°
2026-04-21 15:30 40.51562 -119.93026 35899 ft 566 kts 345°
2026-04-21 15:30 40.59245 -119.95200 35901 ft 566 kts 345°
2026-04-21 15:31 40.66935 -119.97381 35905 ft 566 kts 345°
2026-04-21 15:31 40.74600 -119.99561 35918 ft 566 kts 345°
2026-04-21 15:32 40.82272 -120.01745 35935 ft 568 kts 345°
2026-04-21 15:32 40.89954 -120.03945 35939 ft 568 kts 345°
2026-04-21 15:33 40.97658 -120.06153 36267 ft 564 kts 345°
2026-04-21 15:33 41.01469 -120.07245 36761 ft 562 kts 345°
2026-04-21 15:33 41.05249 -120.08335 37243 ft 559 kts 345°
2026-04-21 15:34 41.09014 -120.09417 37726 ft 555 kts 345°
2026-04-21 15:34 41.12778 -120.10504 37905 ft 559 kts 345°
2026-04-21 15:34 41.20388 -120.12701 37934 ft 561 kts 345°
2026-04-21 15:35 41.27986 -120.14901 37937 ft 560 kts 345°
2026-04-21 15:35 41.35558 -120.17092 37942 ft 559 kts 345°
2026-04-21 15:36 41.43114 -120.19289 37948 ft 559 kts 345°
2026-04-21 15:36 41.50606 -120.21471 37952 ft 559 kts 345°
2026-04-21 15:37 41.58160 -120.23677 37954 ft 559 kts 345°
2026-04-21 15:37 41.65721 -120.25890 37957 ft 559 kts 345°
2026-04-21 15:38 41.73319 -120.28119 37958 ft 559 kts 345°
2026-04-21 15:38 41.80889 -120.30345 37960 ft 560 kts 345°
2026-04-21 15:39 41.88462 -120.32580 37961 ft 561 kts 345°
2026-04-21 15:39 41.96051 -120.34821 37963 ft 561 kts 345°
2026-04-21 15:40 42.03653 -120.37076 37965 ft 561 kts 345°
2026-04-21 15:40 42.11225 -120.39322 37958 ft 560 kts 345°
2026-04-21 15:41 42.18754 -120.41563 37947 ft 559 kts 345°
2026-04-21 15:41 42.26354 -120.43833 37948 ft 560 kts 345°
2026-04-21 15:42 42.33922 -120.46095 37950 ft 560 kts 345°
2026-04-21 15:42 42.41499 -120.48367 37952 ft 560 kts 345°
2026-04-21 15:43 42.49002 -120.50941 37957 ft 557 kts 338°
2026-04-21 15:43 42.56166 -120.54854 37958 ft 555 kts 332°
2026-04-21 15:44 42.63178 -120.59106 37954 ft 555 kts 332°
2026-04-21 15:44 42.70200 -120.63366 37951 ft 555 kts 333°
2026-04-21 15:45 42.77235 -120.67642 37949 ft 554 kts 332°
2026-04-21 15:45 42.84239 -120.71913 37952 ft 554 kts 332°
2026-04-21 15:46 42.91247 -120.76197 37953 ft 554 kts 332°
2026-04-21 15:46 42.98233 -120.80477 37955 ft 553 kts 332°
2026-04-21 15:47 43.05247 -120.84787 37956 ft 554 kts 332°
2026-04-21 15:47 43.12245 -120.89095 37925 ft 553 kts 332°
2026-04-21 15:48 43.19236 -120.93411 37908 ft 553 kts 332°
2026-04-21 15:48 43.26249 -120.97754 37904 ft 554 kts 332°
2026-04-21 15:49 43.33240 -121.02089 37910 ft 554 kts 332°
2026-04-21 15:49 43.40111 -121.06363 37917 ft 554 kts 332°
2026-04-21 15:50 43.47088 -121.10717 37923 ft 554 kts 333°
2026-04-21 15:50 43.54101 -121.15099 37929 ft 554 kts 333°
2026-04-21 15:51 43.61062 -121.19462 37936 ft 553 kts 333°
2026-04-21 15:51 43.68028 -121.23841 37940 ft 553 kts 333°
2026-04-21 15:52 43.75033 -121.28253 37932 ft 554 kts 333°
2026-04-21 15:52 43.81999 -121.32656 37922 ft 553 kts 333°
2026-04-21 15:53 43.88967 -121.37066 37916 ft 553 kts 333°
2026-04-21 15:53 43.95932 -121.41488 37920 ft 553 kts 333°
2026-04-21 15:54 44.02929 -121.45944 37919 ft 553 kts 333°
2026-04-21 15:54 44.09888 -121.50384 37919 ft 552 kts 333°
2026-04-21 15:55 44.16830 -121.54826 37905 ft 552 kts 333°
2026-04-21 15:55 44.23805 -121.59300 37907 ft 552 kts 333°
2026-04-21 15:56 44.30740 -121.63761 37906 ft 552 kts 333°
2026-04-21 15:56 44.37677 -121.68234 37901 ft 551 kts 332°
2026-04-21 15:57 44.44599 -121.72711 37894 ft 552 kts 332°
2026-04-21 15:57 44.51553 -121.77220 37890 ft 551 kts 332°
2026-04-21 15:58 44.58458 -121.81707 37891 ft 551 kts 332°
2026-04-21 15:58 44.65371 -121.86213 37892 ft 551 kts 332°
2026-04-21 15:59 44.72313 -121.90750 37896 ft 550 kts 332°
2026-04-21 15:59 44.79219 -121.95276 37898 ft 550 kts 332°
2026-04-21 16:00 44.86113 -121.99804 37909 ft 550 kts 332°
2026-04-21 16:00 44.93009 -122.04350 37918 ft 549 kts 333°
2026-04-21 16:01 44.99910 -122.08904 37926 ft 549 kts 333°
2026-04-21 16:01 45.06792 -122.13462 37930 ft 548 kts 333°
2026-04-21 16:02 45.13638 -122.18008 37912 ft 548 kts 333°
2026-04-21 16:02 45.20518 -122.22587 37913 ft 547 kts 333°
2026-04-21 16:03 45.27269 -122.27094 37914 ft 547 kts 333°
2026-04-21 16:03 45.34113 -122.31678 37915 ft 548 kts 333°
2026-04-21 16:04 45.40971 -122.36277 37916 ft 548 kts 333°
2026-04-21 16:04 45.47844 -122.40903 37919 ft 547 kts 333°
2026-04-21 16:05 45.54676 -122.45512 37924 ft 547 kts 333°
2026-04-21 16:05 45.61528 -122.50149 37927 ft 547 kts 333°
2026-04-21 16:06 45.68380 -122.54796 37932 ft 547 kts 333°
2026-04-21 16:06 45.75255 -122.59270 37930 ft 548 kts 339°
2026-04-21 16:07 45.82335 -122.63204 37933 ft 549 kts 338°
2026-04-21 16:07 45.89438 -122.67023 37932 ft 548 kts 338°
2026-04-21 16:08 46.00124 -122.72794 37936 ft 548 kts 338°
2026-04-21 16:09 46.07217 -122.76634 37934 ft 548 kts 338°
2026-04-21 16:09 46.14278 -122.80470 37916 ft 548 kts 338°
2026-04-21 16:10 46.21383 -122.84339 37915 ft 548 kts 338°
2026-04-21 16:10 46.28463 -122.88206 37914 ft 548 kts 338°
2026-04-21 16:11 46.35537 -122.92081 37914 ft 548 kts 338°
2026-04-21 16:11 46.42630 -122.95976 37916 ft 548 kts 338°
2026-04-21 16:12 46.48500 -122.99208 37917 ft 548 kts 338°
2026-04-21 16:12 46.56772 -123.03775 37919 ft 548 kts 338°
2026-04-21 16:13 46.63855 -123.07698 37920 ft 548 kts 338°
2026-04-21 16:13 46.70954 -123.11640 37922 ft 548 kts 338°
2026-04-21 16:14 46.78029 -123.15581 37915 ft 548 kts 338°
2026-04-21 16:14 46.85106 -123.19534 37905 ft 548 kts 338°
2026-04-21 16:15 46.92200 -123.23507 37898 ft 547 kts 338°
2026-04-21 16:15 46.99275 -123.27481 37898 ft 547 kts 338°
2026-04-21 16:16 47.06337 -123.31458 37900 ft 546 kts 338°
2026-04-21 16:16 47.13319 -123.35403 37885 ft 546 kts 338°
2026-04-21 16:17 47.20392 -123.39409 37877 ft 546 kts 338°
2026-04-21 16:17 47.27396 -123.43389 37877 ft 545 kts 338°
2026-04-21 16:18 47.34432 -123.47397 37879 ft 545 kts 338°
2026-04-21 16:18 47.41499 -123.51435 37882 ft 545 kts 338°
2026-04-21 16:19 47.48537 -123.55470 37888 ft 545 kts 338°
2026-04-21 16:19 47.55518 -123.59479 37892 ft 545 kts 338°
2026-04-21 16:20 47.62505 -123.63506 37893 ft 545 kts 338°
2026-04-21 16:20 47.69535 -123.67568 37893 ft 544 kts 337°
2026-04-21 16:21 47.76560 -123.71641 37894 ft 544 kts 337°
2026-04-21 16:21 47.83574 -123.75719 37894 ft 543 kts 337°
2026-04-21 16:22 47.90612 -123.79822 37891 ft 543 kts 337°
2026-04-21 16:22 47.97626 -123.83924 37884 ft 544 kts 337°
2026-04-21 16:23 48.04620 -123.88025 37885 ft 543 kts 337°
2026-04-21 16:23 48.11623 -123.92144 37882 ft 543 kts 337°
2026-04-21 16:24 48.18648 -123.96288 37884 ft 543 kts 337°
2026-04-21 16:24 48.25644 -124.00426 37891 ft 543 kts 337°
2026-04-21 16:25 48.32623 -124.04569 37899 ft 542 kts 337°
2026-04-21 16:25 48.39626 -124.08737 37906 ft 541 kts 337°
2026-04-21 16:26 48.46587 -124.12892 37907 ft 541 kts 337°
2026-04-21 16:26 48.53525 -124.17046 37907 ft 540 kts 337°
2026-04-21 16:27 48.60464 -124.21212 37904 ft 538 kts 337°
2026-04-21 16:27 48.67403 -124.25391 37902 ft 537 kts 337°
2026-04-21 16:28 48.74297 -124.29553 37902 ft 535 kts 337°
2026-04-21 16:28 48.81175 -124.33721 37904 ft 533 kts 337°
2026-04-21 16:29 48.88037 -124.37891 37903 ft 532 kts 337°
2026-04-21 16:29 48.94872 -124.42055 37904 ft 531 kts 337°
2026-04-21 16:30 49.01662 -124.46206 37906 ft 529 kts 337°
2026-04-21 16:30 49.08473 -124.50380 37908 ft 529 kts 337°
2026-04-21 16:31 49.15115 -124.54464 37894 ft 528 kts 337°
2026-04-21 16:31 49.21874 -124.58631 37882 ft 527 kts 337°
2026-04-21 16:32 49.28617 -124.62803 37870 ft 526 kts 337°
2026-04-21 16:32 49.35370 -124.66988 37868 ft 525 kts 336°
2026-04-21 16:33 49.42090 -124.71173 37870 ft 524 kts 336°
2026-04-21 16:33 49.48804 -124.75361 37872 ft 524 kts 336°
2026-04-21 16:34 49.55489 -124.79545 37875 ft 524 kts 336°
2026-04-21 16:34 49.62201 -124.83757 37875 ft 523 kts 336°
2026-04-21 16:35 49.68897 -124.87972 37880 ft 523 kts 336°
2026-04-21 16:35 49.75402 -124.92387 37883 ft 523 kts 333°
2026-04-21 16:36 49.82004 -124.97062 37882 ft 522 kts 333°
2026-04-21 16:36 49.88561 -125.01717 37876 ft 522 kts 333°
2026-04-21 16:37 49.94494 -125.05941 37868 ft 522 kts 333°
2026-04-21 16:37 49.99713 -125.09666 37868 ft 522 kts 333°
2026-04-21 16:38 50.07232 -125.15042 37867 ft 516 kts 333°
2026-04-21 16:38 50.13507 -125.19555 37858 ft 516 kts 333°
2026-04-21 16:39 50.20472 -125.24572 37859 ft 516 kts 333°
2026-04-21 16:39 50.26959 -125.29258 37862 ft 516 kts 333°
2026-04-21 16:40 50.33399 -125.33926 37874 ft 516 kts 333°
2026-04-21 16:40 50.39812 -125.38588 37885 ft 515 kts 333°
2026-04-21 16:41 50.46194 -125.43240 37888 ft 516 kts 333°
2026-04-21 16:41 50.52585 -125.47913 37890 ft 516 kts 333°
2026-04-21 16:42 50.58986 -125.52608 37890 ft 515 kts 333°
2026-04-21 16:42 50.65384 -125.57315 37891 ft 514 kts 333°
2026-04-21 16:43 50.71811 -125.62058 37891 ft 514 kts 332°
2026-04-21 16:43 50.78189 -125.66777 37894 ft 514 kts 332°
2026-04-21 16:44 50.84544 -125.71495 37895 ft 512 kts 331°
2026-04-21 16:44 50.90298 -125.75780 37895 ft 511 kts 331°
2026-04-21 16:45 50.96699 -125.80559 37903 ft 511 kts 331°
2026-04-21 16:45 51.02919 -125.85218 37912 ft 510 kts 331°
2026-04-21 16:46 51.09357 -125.90054 37914 ft 509 kts 330°
2026-04-21 16:46 51.15292 -125.94525 37905 ft 508 kts 330°
2026-04-21 16:47 51.21698 -125.99367 37906 ft 507 kts 330°
2026-04-21 16:47 51.27986 -126.04133 37907 ft 505 kts 330°
2026-04-21 16:48 51.34282 -126.08920 37910 ft 504 kts 330°
2026-04-21 16:48 51.40529 -126.13685 37911 ft 504 kts 330°
2026-04-21 16:49 51.46716 -126.18420 37914 ft 503 kts 330°
2026-04-21 16:49 51.52990 -126.23233 37916 ft 503 kts 329°
2026-04-21 16:50 51.59280 -126.28075 37920 ft 502 kts 329°
2026-04-21 16:50 51.65475 -126.32858 37924 ft 502 kts 329°
2026-04-21 16:51 51.71745 -126.37715 37927 ft 502 kts 329°
2026-04-21 16:51 51.78002 -126.42575 37927 ft 502 kts 329°
2026-04-21 16:52 51.84275 -126.47463 37928 ft 502 kts 329°
2026-04-21 16:52 51.90530 -126.52352 37928 ft 502 kts 329°
2026-04-21 16:53 51.96790 -126.57261 37928 ft 502 kts 329°
2026-04-21 16:53 52.03059 -126.62177 37930 ft 500 kts 329°
2026-04-21 16:54 52.09242 -126.67067 37933 ft 496 kts 328°
2026-04-21 16:54 52.15372 -126.71921 37926 ft 496 kts 328°
2026-04-21 16:55 52.21539 -126.76817 37926 ft 496 kts 328°
2026-04-21 16:55 52.27716 -126.81734 37925 ft 495 kts 328°
2026-04-21 16:56 52.33851 -126.86636 37926 ft 495 kts 328°
2026-04-21 16:56 52.39980 -126.91548 37926 ft 494 kts 328°
2026-04-21 16:57 52.46128 -126.96489 37927 ft 494 kts 328°
2026-04-21 16:57 52.52231 -127.01410 37928 ft 493 kts 328°
2026-04-21 16:58 52.58337 -127.06348 37930 ft 492 kts 327°
2026-04-21 16:58 52.64438 -127.11300 37932 ft 492 kts 327°
2026-04-21 16:59 52.70545 -127.16270 37936 ft 491 kts 327°
2026-04-21 16:59 52.76619 -127.21229 37943 ft 491 kts 327°
2026-04-21 17:00 52.82668 -127.26184 37946 ft 490 kts 327°
2026-04-21 17:00 52.87737 -127.30344 37946 ft 489 kts 327°
2026-04-21 17:01 52.94808 -127.36173 37947 ft 489 kts 327°
2026-04-21 17:01 53.00860 -127.41176 37946 ft 488 kts 327°
2026-04-21 17:02 53.06907 -127.46192 37946 ft 487 kts 327°
2026-04-21 17:02 53.12937 -127.51208 37938 ft 486 kts 327°
2026-04-21 17:03 53.18948 -127.56226 37938 ft 486 kts 327°
2026-04-21 17:03 53.24951 -127.61252 37940 ft 485 kts 327°
2026-04-21 17:04 53.30874 -127.66225 37946 ft 484 kts 326°
2026-04-21 17:04 53.36827 -127.71242 37954 ft 482 kts 326°
2026-04-21 17:05 53.42776 -127.76270 37961 ft 481 kts 326°
2026-04-21 17:05 53.48708 -127.81298 37965 ft 480 kts 326°
2026-04-21 17:06 53.54640 -127.86345 37965 ft 479 kts 326°
2026-04-21 17:06 53.60515 -127.91358 37965 ft 478 kts 326°
2026-04-21 17:07 53.65445 -127.95575 37968 ft 478 kts 326°
2026-04-21 17:07 53.72303 -128.01462 37977 ft 478 kts 326°
2026-04-21 17:08 53.78191 -128.06534 37984 ft 478 kts 326°
2026-04-21 17:08 53.84068 -128.11613 37992 ft 477 kts 326°
2026-04-21 17:09 53.92898 -128.19273 38001 ft 477 kts 326°
2026-04-21 17:09 53.98765 -128.24383 38004 ft 477 kts 326°
2026-04-21 17:10 54.04636 -128.29513 38007 ft 477 kts 326°
2026-04-21 17:10 54.10493 -128.34647 38009 ft 477 kts 326°
2026-04-21 17:11 54.16378 -128.39821 38003 ft 477 kts 326°
2026-04-21 17:11 54.22236 -128.44990 38003 ft 477 kts 326°
2026-04-21 17:12 54.28087 -128.50168 38004 ft 476 kts 326°
2026-04-21 17:12 54.33956 -128.55380 38003 ft 476 kts 326°
2026-04-21 17:13 54.39828 -128.60454 38004 ft 477 kts 328°
2026-04-21 17:13 54.45747 -128.65382 38004 ft 477 kts 327°
2026-04-21 17:14 54.51658 -128.70312 38011 ft 476 kts 327°
2026-04-21 17:14 54.57601 -128.75288 38011 ft 476 kts 327°
2026-04-21 17:15 54.63523 -128.80258 38008 ft 476 kts 327°
2026-04-21 17:15 54.69439 -128.85243 38005 ft 476 kts 327°
2026-04-21 17:16 54.75386 -128.90267 38004 ft 476 kts 327°
2026-04-21 17:16 54.81300 -128.95282 38011 ft 477 kts 327°
2026-04-21 17:17 54.87230 -129.00326 38020 ft 476 kts 327°
2026-04-21 17:17 54.93137 -129.05367 38026 ft 476 kts 327°
2026-04-21 17:18 54.99072 -129.10450 38034 ft 476 kts 327°
2026-04-21 17:18 55.04970 -129.15516 38038 ft 475 kts 327°
2026-04-21 17:19 55.10832 -129.20571 38042 ft 475 kts 328°
2026-04-21 17:19 55.16731 -129.25671 38046 ft 475 kts 328°
2026-04-21 17:20 55.22630 -129.30791 38051 ft 476 kts 328°
2026-04-21 17:20 55.28524 -129.35920 38051 ft 475 kts 328°
2026-04-21 17:21 55.34410 -129.41062 38051 ft 475 kts 328°
2026-04-21 17:21 55.40309 -129.46235 38051 ft 475 kts 328°
2026-04-21 17:22 55.46176 -129.51391 38051 ft 475 kts 328°
2026-04-21 17:22 55.52034 -129.56560 38051 ft 475 kts 328°
2026-04-21 17:23 55.57931 -129.61781 38051 ft 475 kts 328°
2026-04-21 17:23 55.63772 -129.66968 38057 ft 475 kts 327°
2026-04-21 17:24 55.69619 -129.72182 38057 ft 474 kts 327°
2026-04-21 17:24 55.75451 -129.77394 38060 ft 474 kts 327°
2026-04-21 17:25 55.81285 -129.82629 38064 ft 474 kts 328°
2026-04-21 17:25 55.87107 -129.87871 38067 ft 474 kts 328°
2026-04-21 17:26 55.92938 -129.93138 38069 ft 474 kts 328°
2026-04-21 17:26 55.98784 -129.98437 38070 ft 474 kts 328°
2026-04-21 17:27 56.04611 -130.03737 38073 ft 474 kts 328°
2026-04-21 17:27 56.10429 -130.09047 38074 ft 474 kts 328°
2026-04-21 17:28 56.16243 -130.14371 38072 ft 474 kts 328°
2026-04-21 17:28 56.22015 -130.19678 38072 ft 474 kts 328°
2026-04-21 17:29 56.27813 -130.25021 38071 ft 473 kts 328°
2026-04-21 17:29 56.33601 -130.30378 38071 ft 473 kts 328°
2026-04-21 17:30 56.39422 -130.35781 38070 ft 473 kts 328°
2026-04-21 17:30 56.45011 -130.40986 38071 ft 473 kts 328°
2026-04-21 17:31 56.50769 -130.46369 38070 ft 472 kts 328°
2026-04-21 17:31 56.56427 -130.51677 38065 ft 472 kts 328°
2026-04-21 17:32 56.61704 -130.56641 38061 ft 471 kts 328°
2026-04-21 17:32 56.66116 -130.60804 38061 ft 471 kts 328°
2026-04-21 17:33 56.71439 -130.65843 38064 ft 470 kts 327°
2026-04-21 17:33 56.76306 -130.70465 38066 ft 470 kts 327°
2026-04-21 17:34 56.81892 -130.75784 38066 ft 469 kts 327°
2026-04-21 17:34 56.87463 -130.81108 38066 ft 469 kts 327°
2026-04-21 17:35 56.93133 -130.86545 38075 ft 468 kts 327°
2026-04-21 17:35 56.99471 -130.92646 38080 ft 469 kts 328°
2026-04-21 17:36 57.05808 -130.98766 38071 ft 468 kts 328°
2026-04-21 17:36 57.12032 -131.04803 38058 ft 468 kts 328°
2026-04-21 17:37 57.17953 -131.10567 38054 ft 468 kts 328°
2026-04-21 17:37 57.23744 -131.16228 38054 ft 468 kts 328°
2026-04-21 17:38 57.29420 -131.21791 38054 ft 467 kts 328°
2026-04-21 17:38 57.35086 -131.27366 38054 ft 467 kts 328°
2026-04-21 17:39 57.40770 -131.32980 38053 ft 467 kts 328°
2026-04-21 17:39 57.46451 -131.38609 38049 ft 467 kts 328°
2026-04-21 17:40 57.52095 -131.44224 38027 ft 467 kts 328°
2026-04-21 17:40 57.57785 -131.49901 38003 ft 467 kts 328°
2026-04-21 17:41 57.63419 -131.55543 37989 ft 466 kts 328°
2026-04-21 17:41 57.69038 -131.61193 37988 ft 466 kts 328°
2026-04-21 17:42 57.74583 -131.66784 37992 ft 465 kts 327°
2026-04-21 17:42 57.80119 -131.72388 37992 ft 465 kts 327°
2026-04-21 17:43 57.85614 -131.77972 37992 ft 465 kts 328°
2026-04-21 17:43 57.91153 -131.83615 37992 ft 465 kts 328°
2026-04-21 17:44 57.96739 -131.89329 37992 ft 465 kts 328°
2026-04-21 17:44 58.02346 -131.95086 37991 ft 465 kts 328°
2026-04-21 17:45 58.07949 -132.00859 37991 ft 465 kts 328°
2026-04-21 17:45 58.13501 -132.06601 37995 ft 465 kts 328°
2026-04-21 17:46 58.19131 -132.12443 37995 ft 465 kts 328°
2026-04-21 17:46 58.24758 -132.18304 37992 ft 465 kts 328°
2026-04-21 17:47 58.30364 -132.24164 38004 ft 465 kts 328°
2026-04-21 17:47 58.36002 -132.30080 38008 ft 465 kts 328°
2026-04-21 17:48 58.41610 -132.35986 38007 ft 465 kts 328°
2026-04-21 17:48 58.47233 -132.41928 38007 ft 465 kts 328°
2026-04-21 17:49 58.52837 -132.47874 38007 ft 465 kts 328°
2026-04-21 17:49 58.58439 -132.53842 38006 ft 465 kts 328°
2026-04-21 17:50 58.64055 -132.59842 38006 ft 465 kts 328°
2026-04-21 17:50 58.69620 -132.65811 38008 ft 465 kts 327°
2026-04-21 17:51 58.75167 -132.71783 38005 ft 465 kts 327°
2026-04-21 17:51 58.80733 -132.77798 37985 ft 464 kts 327°
2026-04-21 17:52 58.86287 -132.83821 37966 ft 464 kts 327°
2026-04-21 17:52 58.91838 -132.89866 37955 ft 464 kts 327°
2026-04-21 17:53 58.97422 -132.95967 37955 ft 464 kts 327°
2026-04-21 17:53 59.03002 -133.02088 37966 ft 464 kts 327°
2026-04-21 17:54 59.08582 -133.08234 37981 ft 464 kts 327°
2026-04-21 17:54 59.14158 -133.14394 37999 ft 464 kts 327°
2026-04-21 17:55 59.19654 -133.20491 38014 ft 464 kts 327°
2026-04-21 17:55 59.25229 -133.26698 38018 ft 464 kts 327°
2026-04-21 17:56 59.30799 -133.32925 38017 ft 464 kts 327°
2026-04-21 17:56 59.36362 -133.39167 38017 ft 464 kts 327°
2026-04-21 17:57 59.41936 -133.45446 37989 ft 464 kts 327°
2026-04-21 17:57 59.47506 -133.51743 37954 ft 464 kts 327°
2026-04-21 17:58 59.53083 -133.58074 37919 ft 464 kts 327°
2026-04-21 17:58 59.58639 -133.64402 37915 ft 463 kts 327°
2026-04-21 17:59 59.64153 -133.70712 37919 ft 463 kts 327°
2026-04-21 17:59 59.69687 -133.77062 37918 ft 462 kts 327°
2026-04-21 18:00 59.75243 -133.83468 37918 ft 463 kts 327°
2026-04-21 18:00 59.80784 -133.89880 37918 ft 462 kts 327°
2026-04-21 18:01 59.86310 -133.96298 37923 ft 462 kts 327°
2026-04-21 18:01 59.91856 -134.02765 37926 ft 462 kts 327°
2026-04-21 18:02 59.97368 -134.09218 37915 ft 462 kts 327°
2026-04-21 18:02 60.02872 -134.15740 37893 ft 461 kts 323°
2026-04-21 18:03 60.07962 -134.23363 37898 ft 459 kts 319°
2026-04-21 18:03 60.12911 -134.31467 37899 ft 459 kts 319°
2026-04-21 18:04 60.17822 -134.39580 37898 ft 459 kts 319°
2026-04-21 18:04 60.22716 -134.47699 37898 ft 459 kts 319°
2026-04-21 18:05 60.27637 -134.55897 37898 ft 459 kts 319°
2026-04-21 18:05 60.32527 -134.64075 37897 ft 459 kts 319°
2026-04-21 18:06 60.37412 -134.72277 37900 ft 458 kts 318°
2026-04-21 18:06 60.42278 -134.80481 37900 ft 458 kts 318°
2026-04-21 18:07 60.47164 -134.88753 37900 ft 457 kts 318°
2026-04-21 18:07 60.52019 -134.97004 37901 ft 457 kts 318°
2026-04-21 18:08 60.56867 -135.05277 37895 ft 457 kts 318°
2026-04-21 18:08 60.61825 -135.13364 37877 ft 460 kts 326°
2026-04-21 18:09 60.67152 -135.20481 37874 ft 461 kts 326°
2026-04-21 18:09 60.72580 -135.27371 37870 ft 461 kts 326°
2026-04-21 18:10 60.77995 -135.34245 37870 ft 460 kts 326°
2026-04-21 18:10 60.83432 -135.41171 37870 ft 460 kts 326°
2026-04-21 18:11 60.88839 -135.48089 37869 ft 460 kts 326°
2026-04-21 18:11 60.94245 -135.55034 37869 ft 460 kts 326°
2026-04-21 18:12 60.99660 -135.62019 37868 ft 460 kts 326°
2026-04-21 18:12 61.05064 -135.69018 37872 ft 461 kts 325°
2026-04-21 18:13 61.10468 -135.76045 37872 ft 461 kts 325°
2026-04-21 18:13 61.15866 -135.83092 37874 ft 461 kts 325°
2026-04-21 18:14 61.23988 -135.93752 37870 ft 462 kts 325°
2026-04-21 18:15 61.29380 -136.00866 37862 ft 462 kts 325°
2026-04-21 18:15 61.34774 -136.08012 37855 ft 461 kts 325°
2026-04-21 18:16 61.40179 -136.15201 37853 ft 461 kts 325°
2026-04-21 18:16 61.45568 -136.22399 37853 ft 461 kts 325°
2026-04-21 18:17 61.50944 -136.29611 37853 ft 461 kts 325°
2026-04-21 18:17 61.56343 -136.36882 37852 ft 461 kts 325°
2026-04-21 18:18 61.61715 -136.44148 37852 ft 461 kts 325°
2026-04-21 18:18 61.67075 -136.51430 37851 ft 461 kts 325°
2026-04-21 18:19 61.72444 -136.58753 37851 ft 461 kts 325°
2026-04-21 18:19 61.77826 -136.66123 37852 ft 462 kts 324°
2026-04-21 18:20 61.83189 -136.73502 37854 ft 462 kts 324°
2026-04-21 18:20 61.88537 -136.80890 37853 ft 462 kts 324°
2026-04-21 18:21 61.93910 -136.88342 37853 ft 462 kts 324°
2026-04-21 18:21 61.99265 -136.95799 37853 ft 462 kts 324°
2026-04-21 18:22 62.04606 -137.03276 37853 ft 462 kts 324°
2026-04-21 18:22 62.09953 -137.10790 37852 ft 462 kts 324°
2026-04-21 18:23 62.15327 -137.18372 37854 ft 463 kts 324°
2026-04-21 18:23 62.20674 -137.25952 37853 ft 463 kts 324°
2026-04-21 18:24 62.26016 -137.33555 37853 ft 463 kts 324°
2026-04-21 18:24 62.31366 -137.41203 37852 ft 462 kts 324°
2026-04-21 18:25 62.36687 -137.48845 37852 ft 462 kts 324°
2026-04-21 18:25 62.42012 -137.56523 37852 ft 462 kts 324°
2026-04-21 18:26 62.47329 -137.64224 37851 ft 462 kts 324°
2026-04-21 18:26 62.52660 -137.71980 37854 ft 462 kts 323°
2026-04-21 18:27 62.57874 -137.79598 37854 ft 462 kts 323°
2026-04-21 18:27 62.63156 -137.87348 37854 ft 462 kts 323°
2026-04-21 18:28 62.67965 -137.94436 37853 ft 462 kts 323°
2026-04-21 18:28 62.73549 -138.02696 37854 ft 462 kts 323°
2026-04-21 18:29 62.78742 -138.10417 37852 ft 462 kts 323°
2026-04-21 18:29 62.83986 -138.18248 37853 ft 462 kts 323°
2026-04-21 18:30 62.89206 -138.26075 37852 ft 462 kts 323°
2026-04-21 18:30 62.94479 -138.34017 37855 ft 462 kts 323°
2026-04-21 18:31 62.99743 -138.41982 37857 ft 462 kts 323°
2026-04-21 18:31 63.05041 -138.50036 37859 ft 463 kts 323°
2026-04-21 18:32 63.10305 -138.58070 37860 ft 463 kts 323°
2026-04-21 18:32 63.15582 -138.66163 37862 ft 463 kts 322°
2026-04-21 18:33 63.20840 -138.74263 37864 ft 463 kts 322°
2026-04-21 18:33 63.26041 -138.82309 37864 ft 463 kts 322°
2026-04-21 18:34 63.31288 -138.90465 37864 ft 463 kts 322°
2026-04-21 18:34 63.36540 -138.98665 37863 ft 463 kts 322°
2026-04-21 18:35 63.40920 -139.05533 37863 ft 463 kts 322°
2026-04-21 18:35 63.47032 -139.15160 37862 ft 463 kts 322°
2026-04-21 18:36 63.52263 -139.23443 37862 ft 463 kts 323°
2026-04-21 18:36 63.57505 -139.31776 37864 ft 464 kts 322°
2026-04-21 18:37 63.62757 -139.40167 37867 ft 463 kts 323°
2026-04-21 18:37 63.67977 -139.48544 37869 ft 463 kts 323°
2026-04-21 18:38 63.73197 -139.56962 37870 ft 463 kts 323°
2026-04-21 18:38 63.78431 -139.65442 37870 ft 464 kts 322°
2026-04-21 18:39 63.83640 -139.73916 37872 ft 464 kts 322°
2026-04-21 18:39 63.88861 -139.82454 37872 ft 464 kts 322°
2026-04-21 18:40 63.94062 -139.90996 37872 ft 464 kts 322°
2026-04-21 18:40 63.98406 -139.98162 37870 ft 464 kts 322°
2026-04-21 18:41 64.04473 -140.08220 37865 ft 464 kts 322°
2026-04-21 18:41 64.09668 -140.16875 37862 ft 464 kts 322°
2026-04-21 18:42 64.14877 -140.25596 37863 ft 464 kts 322°
2026-04-21 18:42 64.20061 -140.34314 37859 ft 464 kts 322°
2026-04-21 18:43 64.25235 -140.43057 37853 ft 464 kts 322°
2026-04-21 18:43 64.30402 -140.51831 37847 ft 464 kts 322°
2026-04-21 18:44 64.35593 -140.60687 37843 ft 464 kts 322°
2026-04-21 18:44 64.40756 -140.69540 37845 ft 464 kts 321°
2026-04-21 18:45 64.45914 -140.78423 37845 ft 464 kts 321°
2026-04-21 18:45 64.50971 -140.87177 37846 ft 464 kts 321°
2026-04-21 18:46 64.56110 -140.96114 37842 ft 464 kts 321°
2026-04-21 18:46 64.61349 -141.04780 37839 ft 465 kts 323°
2026-04-21 18:47 64.66652 -141.13251 37835 ft 465 kts 323°
2026-04-21 18:47 64.71981 -141.21796 37835 ft 465 kts 323°
2026-04-21 18:48 64.77280 -141.30334 37834 ft 465 kts 323°
2026-04-21 18:48 64.82585 -141.38923 37834 ft 465 kts 323°
2026-04-21 18:49 64.87899 -141.47571 37833 ft 465 kts 323°
2026-04-21 18:49 64.92303 -141.54770 37833 ft 465 kts 323°
2026-04-21 18:50 64.98473 -141.64905 37833 ft 465 kts 323°
2026-04-21 18:50 65.03754 -141.73624 37835 ft 465 kts 322°
2026-04-21 18:51 65.09051 -141.82415 37836 ft 466 kts 322°
2026-04-21 18:51 65.14333 -141.91222 37838 ft 466 kts 322°
2026-04-21 18:52 65.19604 -142.00058 37841 ft 466 kts 322°
2026-04-21 18:52 65.24896 -142.08972 37845 ft 466 kts 322°
2026-04-21 18:53 65.30157 -142.17877 37845 ft 466 kts 322°
2026-04-21 18:53 65.35423 -142.26834 37847 ft 466 kts 322°
2026-04-21 18:54 65.40679 -142.35821 37850 ft 466 kts 322°
2026-04-21 18:54 65.45952 -142.44882 37852 ft 466 kts 322°
2026-04-21 18:55 65.50313 -142.52411 37852 ft 466 kts 322°
2026-04-21 18:55 65.56442 -142.63046 37852 ft 466 kts 322°
2026-04-21 18:56 65.61699 -142.72217 37854 ft 466 kts 322°
2026-04-21 18:56 65.66931 -142.81391 37855 ft 466 kts 321°
2026-04-21 18:57 65.72088 -142.90482 37853 ft 466 kts 322°
2026-04-21 18:57 65.77274 -142.99670 37853 ft 466 kts 322°
2026-04-21 18:58 65.82507 -143.08985 37853 ft 467 kts 321°
2026-04-21 18:58 65.87723 -143.18319 37852 ft 466 kts 321°
2026-04-21 18:59 65.92926 -143.27683 37852 ft 466 kts 321°
2026-04-21 18:59 65.98138 -143.37107 37850 ft 466 kts 321°
2026-04-21 19:00 66.03329 -143.46542 37846 ft 466 kts 321°
2026-04-21 19:00 66.08498 -143.55988 37843 ft 467 kts 321°
2026-04-21 19:01 66.13703 -143.65547 37844 ft 467 kts 321°
2026-04-21 19:01 66.18903 -143.75147 37845 ft 466 kts 321°
2026-04-21 19:02 66.24066 -143.84732 37845 ft 466 kts 321°
2026-04-21 19:02 66.29224 -143.94354 37845 ft 466 kts 321°
2026-04-21 19:03 66.34395 -144.04054 37844 ft 466 kts 321°
2026-04-21 19:03 66.39540 -144.13759 37840 ft 467 kts 321°
2026-04-21 19:04 66.44689 -144.23517 37836 ft 467 kts 321°
2026-04-21 19:04 66.49827 -144.33306 37834 ft 467 kts 321°
2026-04-21 19:05 66.54982 -144.43184 37834 ft 467 kts 321°
2026-04-21 19:05 66.60116 -144.53073 37831 ft 467 kts 321°
2026-04-21 19:06 66.65238 -144.62990 37825 ft 467 kts 321°
2026-04-21 19:06 66.70381 -144.73005 37821 ft 467 kts 320°
2026-04-21 19:07 66.75500 -144.83023 37818 ft 467 kts 320°
2026-04-21 19:07 66.80496 -144.92856 37817 ft 467 kts 320°
2026-04-21 19:08 66.85596 -145.02947 37817 ft 467 kts 320°
2026-04-21 19:08 66.90712 -145.13125 37817 ft 467 kts 320°
2026-04-21 19:09 66.95817 -145.23336 37816 ft 467 kts 320°
2026-04-21 19:09 67.00908 -145.33574 37816 ft 467 kts 320°
2026-04-21 19:10 67.06008 -145.43887 37813 ft 467 kts 320°
2026-04-21 19:10 67.11074 -145.54190 37799 ft 467 kts 320°
2026-04-21 19:11 67.16147 -145.64561 37785 ft 468 kts 320°
2026-04-21 19:11 67.21230 -145.75012 37773 ft 467 kts 319°
2026-04-21 19:12 67.26303 -145.85501 37772 ft 467 kts 319°
2026-04-21 19:12 67.31349 -145.95991 37771 ft 467 kts 319°
2026-04-21 19:13 67.36401 -146.06551 37767 ft 467 kts 319°
2026-04-21 19:13 67.41456 -146.17183 37763 ft 468 kts 319°
2026-04-21 19:14 67.46484 -146.27812 37762 ft 468 kts 319°
2026-04-21 19:14 67.51498 -146.38472 37761 ft 468 kts 319°
2026-04-21 19:15 67.56523 -146.49216 37761 ft 468 kts 319°
2026-04-21 19:15 67.61555 -146.60037 37761 ft 468 kts 319°
2026-04-21 19:16 67.66551 -146.70843 37763 ft 467 kts 318°
2026-04-21 19:16 67.71538 -146.81688 37760 ft 467 kts 318°
2026-04-21 19:17 67.79020 -146.98077 37749 ft 467 kts 318°
2026-04-21 19:17 67.84117 -147.09323 37739 ft 467 kts 318°
2026-04-21 19:18 67.89352 -147.20943 37734 ft 467 kts 318°
2026-04-21 19:18 67.94465 -147.32359 37734 ft 467 kts 318°
2026-04-21 19:19 67.99322 -147.43271 37733 ft 468 kts 318°
2026-04-21 19:19 68.04273 -147.54456 37733 ft 468 kts 318°
2026-04-21 19:20 68.09224 -147.65704 37733 ft 468 kts 317°
2026-04-21 19:20 68.14188 -147.77049 37735 ft 468 kts 317°
2026-04-21 19:21 68.19115 -147.88376 37737 ft 468 kts 317°
2026-04-21 19:21 68.24035 -147.99754 37745 ft 468 kts 317°
2026-04-21 19:22 68.28969 -148.11229 37752 ft 468 kts 317°
2026-04-21 19:22 68.33870 -148.22700 37753 ft 469 kts 317°
2026-04-21 19:23 68.38785 -148.34268 37759 ft 469 kts 317°
2026-04-21 19:23 68.43690 -148.45883 37764 ft 469 kts 317°
2026-04-21 19:24 68.48529 -148.57410 37769 ft 469 kts 317°
2026-04-21 19:24 68.53427 -148.69149 37772 ft 469 kts 317°
2026-04-21 19:25 68.58313 -148.80926 37772 ft 469 kts 317°
2026-04-21 19:25 68.63200 -148.92781 37750 ft 469 kts 317°
2026-04-21 19:26 68.68060 -149.04638 37722 ft 469 kts 317°
2026-04-21 19:26 68.72910 -149.16549 37716 ft 470 kts 317°
2026-04-21 19:27 68.77757 -149.28518 37716 ft 470 kts 317°
2026-04-21 19:27 68.82620 -149.40603 37716 ft 470 kts 317°
2026-04-21 19:28 68.87451 -149.52683 37715 ft 470 kts 317°
2026-04-21 19:28 68.92278 -149.64828 37715 ft 470 kts 317°
2026-04-21 19:29 68.97089 -149.77085 37719 ft 469 kts 315°
2026-04-21 19:29 69.01852 -149.89391 37786 ft 470 kts 315°
2026-04-21 19:30 69.06534 -150.01564 37858 ft 470 kts 316°
2026-04-21 19:30 69.11292 -150.14014 37946 ft 470 kts 315°
2026-04-21 19:31 69.16068 -150.26594 37989 ft 472 kts 316°
2026-04-21 19:31 69.20484 -150.40066 37994 ft 471 kts 309°
2026-04-21 19:32 69.24689 -150.54120 37990 ft 470 kts 309°
2026-04-21 19:32 69.28899 -150.68258 37991 ft 470 kts 309°
2026-04-21 19:33 69.33081 -150.82369 37991 ft 470 kts 309°
2026-04-21 19:33 69.37263 -150.96528 37991 ft 470 kts 309°
2026-04-21 19:34 69.41434 -151.10712 37982 ft 471 kts 309°
2026-04-21 19:34 69.45621 -151.25039 37980 ft 471 kts 309°
2026-04-21 19:35 69.51860 -151.46526 38052 ft 472 kts 309°
2026-04-21 19:36 69.56012 -151.60949 38102 ft 472 kts 309°
2026-04-21 19:36 69.60179 -151.75500 38153 ft 473 kts 308°
2026-04-21 19:37 69.64327 -151.90056 38165 ft 473 kts 308°
2026-04-21 19:37 69.68471 -152.04683 38164 ft 474 kts 308°
2026-04-21 19:38 69.72623 -152.19401 38163 ft 474 kts 308°
2026-04-21 19:38 69.74698 -152.26779 37769 ft 477 kts 308°
2026-04-21 19:38 69.76072 -152.31669 37396 ft 469 kts 308°
2026-04-21 19:38 69.78776 -152.41290 36712 ft 459 kts 309°
2026-04-21 19:39 69.80771 -152.48394 36205 ft 455 kts 309°
2026-04-21 19:39 69.82747 -152.55443 35703 ft 451 kts 309°
2026-04-21 19:39 69.84710 -152.62444 35201 ft 448 kts 309°
2026-04-21 19:39 69.86679 -152.69463 34694 ft 444 kts 308°
2026-04-21 19:40 69.88613 -152.76376 34192 ft 441 kts 308°
2026-04-21 19:40 69.90526 -152.83216 33693 ft 437 kts 308°
2026-04-21 19:40 69.92431 -152.90028 33190 ft 433 kts 308°
2026-04-21 19:40 69.94318 -152.96769 32689 ft 430 kts 308°
2026-04-21 19:41 69.96191 -153.03457 32188 ft 426 kts 308°
2026-04-21 19:41 69.98048 -153.10081 31688 ft 423 kts 308°
2026-04-21 19:41 69.99910 -153.16722 31183 ft 420 kts 308°
2026-04-21 19:41 70.01741 -153.23300 30681 ft 418 kts 308°
2026-04-21 19:42 70.03555 -153.29859 30184 ft 416 kts 308°
2026-04-21 19:42 70.05360 -153.36384 29684 ft 413 kts 308°
2026-04-21 19:42 70.07150 -153.42866 29185 ft 410 kts 308°
2026-04-21 19:42 70.08932 -153.49328 28684 ft 407 kts 308°
2026-04-21 19:43 70.10697 -153.55744 28182 ft 403 kts 308°
2026-04-21 19:43 70.12454 -153.62134 27677 ft 401 kts 308°
2026-04-21 19:43 70.14197 -153.68471 27173 ft 396 kts 307°
2026-04-21 19:43 70.15887 -153.74610 26655 ft 379 kts 307°
2026-04-21 19:44 70.17510 -153.80489 26134 ft 366 kts 307°
2026-04-21 19:44 70.19095 -153.86232 25621 ft 360 kts 307°
2026-04-21 19:44 70.20661 -153.91898 25116 ft 356 kts 308°
2026-04-21 19:44 70.22225 -153.97571 24611 ft 354 kts 308°
2026-04-21 19:45 70.23808 -154.03317 24091 ft 353 kts 308°
2026-04-21 19:45 70.25347 -154.08913 23462 ft 352 kts 308°
2026-04-21 19:45 70.26925 -154.14667 22815 ft 348 kts 308°
2026-04-21 19:45 70.28499 -154.20433 22157 ft 343 kts 308°
2026-04-21 19:46 70.30083 -154.26254 21485 ft 339 kts 308°
2026-04-21 19:46 70.31578 -154.31767 20844 ft 335 kts 308°
2026-04-21 19:46 70.33017 -154.37102 20216 ft 331 kts 308°
2026-04-21 19:46 70.34444 -154.42415 19587 ft 328 kts 308°
2026-04-21 19:47 70.35920 -154.47934 18929 ft 324 kts 308°
2026-04-21 19:47 70.37446 -154.53663 18240 ft 321 kts 308°
2026-04-21 19:47 70.38979 -154.59444 17620 ft 317 kts 308°
2026-04-21 19:47 70.40465 -154.65088 17097 ft 314 kts 307°
2026-04-21 19:48 70.41805 -154.70211 16620 ft 312 kts 307°
2026-04-21 19:48 70.43119 -154.75270 16146 ft 310 kts 307°
2026-04-21 19:48 70.44428 -154.80335 15664 ft 303 kts 307°
2026-04-21 19:48 70.45692 -154.85251 15179 ft 296 kts 307°
2026-04-21 19:49 70.46927 -154.90080 14699 ft 292 kts 307°
2026-04-21 19:49 70.48147 -154.94878 14220 ft 289 kts 307°
2026-04-21 19:49 70.49354 -154.99643 13744 ft 287 kts 307°
2026-04-21 19:49 70.50532 -155.04313 13265 ft 279 kts 307°
2026-04-21 19:50 70.51303 -155.07381 12939 ft 274 kts 307°
2026-04-21 19:50 70.52803 -155.13369 12298 ft 268 kts 307°
2026-04-21 19:50 70.53915 -155.17831 11818 ft 266 kts 307°
2026-04-21 19:50 70.55004 -155.22229 11345 ft 263 kts 307°
2026-04-21 19:51 70.56078 -155.26606 10871 ft 261 kts 307°
2026-04-21 19:51 70.57209 -155.31261 10364 ft 258 kts 307°
2026-04-21 19:51 70.58317 -155.35872 9860 ft 256 kts 308°
2026-04-21 19:51 70.59383 -155.40354 9367 ft 254 kts 307°
2026-04-21 19:52 70.60500 -155.45106 8842 ft 251 kts 307°
2026-04-21 19:52 70.61524 -155.49502 8348 ft 247 kts 307°
2026-04-21 19:52 70.62513 -155.53763 7938 ft 250 kts 307°
2026-04-21 19:52 70.63577 -155.57901 7700 ft 247 kts 313°
2026-04-21 19:53 70.64670 -155.61878 7449 ft 246 kts 312°
2026-04-21 19:53 70.65705 -155.65932 7271 ft 242 kts 307°
2026-04-21 19:53 70.66647 -155.69915 7271 ft 228 kts 308°
2026-04-21 19:53 70.67548 -155.73757 7131 ft 218 kts 308°
2026-04-21 19:54 70.68410 -155.77451 6989 ft 213 kts 308°
2026-04-21 19:54 70.69254 -155.81082 6861 ft 211 kts 308°
2026-04-21 19:54 70.70091 -155.84689 6776 ft 210 kts 308°
2026-04-21 19:54 70.70927 -155.88299 6654 ft 210 kts 308°
2026-04-21 19:55 70.71764 -155.91915 6529 ft 210 kts 308°
2026-04-21 19:55 70.72597 -155.95383 6385 ft 198 kts 312°
2026-04-21 19:55 70.73444 -155.98582 6198 ft 192 kts 311°
2026-04-21 19:55 70.74269 -156.01727 5909 ft 190 kts 312°
2026-04-21 19:56 70.75070 -156.04786 5702 ft 184 kts 311°
2026-04-21 19:56 70.75862 -156.07799 5429 ft 183 kts 312°
2026-04-21 19:56 70.76690 -156.10669 5176 ft 178 kts 316°
2026-04-21 19:56 70.77503 -156.13353 4893 ft 167 kts 316°
2026-04-21 19:57 70.78270 -156.15887 4621 ft 161 kts 315°
2026-04-21 19:57 70.79023 -156.18365 4358 ft 158 kts 316°
2026-04-21 19:57 70.79768 -156.20815 4104 ft 157 kts 316°
2026-04-21 19:57 70.80503 -156.23233 3853 ft 156 kts 315°
2026-04-21 19:58 70.81236 -156.25619 3689 ft 154 kts 316°
2026-04-21 19:58 70.81965 -156.27991 3566 ft 154 kts 316°
2026-04-21 19:58 70.82693 -156.30362 3442 ft 154 kts 316°
2026-04-21 19:58 70.83425 -156.32724 3317 ft 154 kts 317°
2026-04-21 19:59 70.84201 -156.34975 3192 ft 154 kts 319°
2026-04-21 19:59 70.84970 -156.37207 3092 ft 153 kts 319°
2026-04-21 19:59 70.85737 -156.39425 3018 ft 153 kts 319°
2026-04-21 19:59 70.86505 -156.41647 2942 ft 153 kts 319°
2026-04-21 20:00 70.87274 -156.43873 2868 ft 153 kts 319°
2026-04-21 20:00 70.88044 -156.46092 2791 ft 153 kts 319°
2026-04-21 20:00 70.88817 -156.48307 2716 ft 153 kts 319°
2026-04-21 20:00 70.89594 -156.50534 2640 ft 153 kts 319°
2026-04-21 20:01 70.90365 -156.52744 2564 ft 153 kts 319°
2026-04-21 20:01 70.91139 -156.54946 2489 ft 153 kts 319°
2026-04-21 20:01 70.91914 -156.57147 2414 ft 152 kts 319°
2026-04-21 20:01 70.92689 -156.59350 2344 ft 152 kts 319°
2026-04-21 20:02 70.93463 -156.61553 2295 ft 152 kts 319°
2026-04-21 20:02 70.94231 -156.63738 2239 ft 149 kts 319°
2026-04-21 20:02 70.94985 -156.65892 2168 ft 145 kts 318°
2026-04-21 20:02 70.95733 -156.67903 2107 ft 143 kts 323°
2026-04-21 20:03 70.96507 -156.69753 2080 ft 138 kts 323°
2026-04-21 20:03 70.97250 -156.71536 2055 ft 135 kts 323°
2026-04-21 20:03 70.97981 -156.73299 2043 ft 133 kts 323°
2026-04-21 20:03 70.98706 -156.75045 2039 ft 133 kts 323°
2026-04-21 20:04 70.99429 -156.76791 2039 ft 133 kts 323°
2026-04-21 20:04 71.00158 -156.78552 2038 ft 133 kts 323°
2026-04-21 20:04 71.00886 -156.80308 2039 ft 133 kts 323°
2026-04-21 20:04 71.01646 -156.81891 2036 ft 132 kts 329°
2026-04-21 20:05 71.02425 -156.83403 2037 ft 133 kts 329°
2026-04-21 20:05 71.03203 -156.84906 2036 ft 133 kts 329°
2026-04-21 20:05 71.03979 -156.86422 2034 ft 132 kts 329°
2026-04-21 20:05 71.04757 -156.87949 1945 ft 133 kts 329°
2026-04-21 20:06 71.05543 -156.89484 1860 ft 132 kts 329°
2026-04-21 20:06 71.06319 -156.90987 1807 ft 133 kts 329°
2026-04-21 20:06 71.07097 -156.92494 1725 ft 132 kts 329°
2026-04-21 20:06 71.07872 -156.93999 1676 ft 132 kts 329°
2026-04-21 20:07 71.08644 -156.95499 1625 ft 132 kts 329°
2026-04-21 20:07 71.09418 -156.97000 1592 ft 131 kts 330°
2026-04-21 20:07 71.10225 -156.98313 1566 ft 131 kts 334°
2026-04-21 20:07 71.11039 -156.99614 1542 ft 131 kts 334°
2026-04-21 20:08 71.11858 -157.00893 1516 ft 133 kts 334°
2026-04-21 20:08 71.12732 -157.01884 1493 ft 134 kts 341°
2026-04-21 20:08 71.13609 -157.02818 1468 ft 134 kts 341°
2026-04-21 20:08 71.14503 -157.03520 1434 ft 134 kts 358°
2026-04-21 20:09 71.15427 -157.03583 1417 ft 133 kts 357°
2026-04-21 20:09 71.16351 -157.03681 1392 ft 133 kts 358°
2026-04-21 20:09 71.17282 -157.03782 1367 ft 133 kts 358°
2026-04-21 20:09 71.18206 -157.03889 1342 ft 133 kts 358°
2026-04-21 20:10 71.19129 -157.04002 1327 ft 133 kts 358°
2026-04-21 20:10 71.20049 -157.04118 1328 ft 133 kts 358°
2026-04-21 20:10 71.20971 -157.04238 1328 ft 133 kts 358°
2026-04-21 20:10 71.21894 -157.04360 1329 ft 133 kts 358°
2026-04-21 20:11 71.22817 -157.04482 1329 ft 133 kts 358°
2026-04-21 20:11 71.23746 -157.04608 1329 ft 133 kts 358°
2026-04-21 20:11 71.24669 -157.04733 1329 ft 133 kts 358°
2026-04-21 20:11 71.25592 -157.04856 1330 ft 133 kts 358°
2026-04-21 20:12 71.26492 -157.04410 1310 ft 131 kts 25°
2026-04-21 20:12 71.27110 -157.02448 1300 ft 129 kts 60°
2026-04-21 20:12 71.27566 -157.00047 1251 ft 128 kts 59°
2026-04-21 20:12 71.28013 -156.97673 1075 ft 127 kts 59°
2026-04-21 20:13 71.28441 -156.95292 883 ft 123 kts 67°
2026-04-21 20:13 71.28480 -156.92695 794 ft 123 kts 97°
2026-04-21 20:13 71.28491 -156.90038 618 ft 123 kts 90°
2026-04-21 20:13 71.28480 -156.87379 492 ft 123 kts 87°
2026-04-21 20:14 71.28480 -156.84728 299 ft 123 kts 90°
2026-04-21 20:14 71.28489 -156.82098 180 ft 121 kts 90°
2026-04-21 20:14 71.28476 -156.79535 80 ft 112 kts 91°
2026-04-21 20:14 71.28478 -156.77237 22 ft 94 kts 89°
2026-04-21 20:15 71.28479 -156.76113 22 ft 37 kts 90°
2026-04-21 20:15 71.28528 -156.75639 22 ft 17 kts 20°
2026-04-21 20:15 71.28557 -156.75623 22 ft 0 kts
2026-04-21 20:16 71.28578 -156.75619 22 ft 10 kts
2026-04-21 20:16 71.28675 -156.75705 22 ft 19 kts 291°
2026-04-21 20:16 71.28682 -156.76239 18 ft 29 kts 269°
2026-04-21 20:16 71.28685 -156.76758 18 ft 12 kts 286°
2026-04-21 20:17 71.28736 -156.76827 18 ft 1 kts 359°
2026-04-21 20:17 71.28743 -156.76827 18 ft 1 kts